Location: Newark
(10.3333°N, 37.7167°E)
Time: 04:44:43
(UTC+00:00)

N. Korean satellite - Visible Passes

Search period start: 22 January 2020 00:00
Search period end: 01 February 2020 00:00
Orbit: 454 x 507 km, 97.2° (Epoch: 21 January)

Date Brightness Start Highest point End Pass type
(mag) Time Alt. Az. Time Alt. Az. Time Alt. Az.
22 Jan 9.0 02:29:11 10° NE 02:32:11 25° E 02:35:14 10° SSE visible
24 Jan 6.6 03:10:56 10° N 03:14:29 58° WNW 03:18:06 10° SSW visible
25 Jan 7.6 02:45:33 10° NNE 02:49:03 48° E 02:52:37 10° S visible
26 Jan 9.5 02:20:58 10° NE 02:23:37 19° E 02:26:15 10° SE visible
27 Jan 7.4 03:28:06 10° NNW 03:31:19 29° WNW 03:34:34 10° SW visible
28 Jan 6.5 03:02:15 10° N 03:05:53 83° WNW 03:09:35 10° SSW visible
29 Jan 8.4 02:37:05 10° NNE 02:40:27 35° E 02:43:51 10° SSE visible
30 Jan 10.0 02:12:59 10° ENE 02:15:00 14° E 02:17:01 10° SE visible
31 Jan 7.0 03:19:15 10° N 03:22:43 41° WNW 03:26:13 10° SSW visible
